When you browse on this site, cookies collect data to enhance your experience and personalize the content and advertising you see.
Visit our Privacy Policy to learn more. By continuing to use the site, you agree to this use of cookies and data.
  • In Czech Republic
  • List of Countries
  • For 7 days
  • Water Temperature
  • Satellite Maps
  • Weather Map
  • Weather Widgets
  • user-avatar
    Login

    Hourly Weather Kribi

    Today, 19 April, Friday

    Time Temperature Precipitation Wind Pressure Humidity
    00:00 +27°C° 0 mm 2 mps 757 mmHg 90%
    01:00 +27°C° 0 mm 1 mps 757 mmHg 91%
    02:00 +27°C° 0 mm 1 mps 757 mmHg 92%
    03:00 +27°C° 0 mm 1 mps 757 mmHg 93%
    04:00 +26°C° 0 mm 1 mps 756 mmHg 94%
    05:00 +27°C° 0 mm 1 mps 757 mmHg 94%
    06:00 +27°C° 0 mm 1 mps 757 mmHg 93%
    07:00 +27°C° 0 mm 1 mps 757 mmHg 91%
    08:00 +30°C° 0 mm 1 mps 757 mmHg 82%
    09:00 +32°C° 0 mm 1 mps 758 mmHg 72%
    10:00 +34°C° 0 mm 1 mps 758 mmHg 63%
    11:00 +34°C° 0 mm 1 mps 757 mmHg 61%
    12:00 +35°C° 0 mm 2 mps 757 mmHg 60%
    13:00 +36°C° 0 mm 3 mps 756 mmHg 59%
    14:00 +35°C° 0 mm 3 mps 756 mmHg 62%
    15:00 +34°C° 0 mm 3 mps 755 mmHg 65%
    16:00 +34°C° 0 mm 3 mps 755 mmHg 68%
    17:00 +31°C° 0.2 mm 2 mps 755 mmHg 75%
    18:00 +30°C° 0.2 mm 2 mps 756 mmHg 82%
    19:00 +29°C° 0.2 mm 1 mps 756 mmHg 88%
    20:00 +29°C° 0.3 mm 2 mps 757 mmHg 90%
    21:00 +28°C° 0.3 mm 3 mps 757 mmHg 91%
    22:00 +28°C° 0.3 mm 3 mps 757 mmHg 93%
    23:00 +28°C° 0 mm 3 mps 757 mmHg 92%

    Tomorrow, 20 April, Saturday

    Time Temperature Precipitation Wind Pressure Humidity
    00:00 +28°C° 0 mm 3 mps 757 mmHg 92%
    01:00 +28°C° 0 mm 3 mps 757 mmHg 91%
    02:00 +28°C° 0.1 mm 2 mps 757 mmHg 92%
    03:00 +27°C° 0.1 mm 2 mps 757 mmHg 93%
    04:00 +27°C° 0.1 mm 2 mps 757 mmHg 93%
    05:00 +27°C° 0 mm 2 mps 757 mmHg 93%
    06:00 +28°C° 0 mm 2 mps 757 mmHg 92%
    07:00 +28°C° 0 mm 2 mps 757 mmHg 92%
    08:00 +29°C° 0 mm 2 mps 757 mmHg 84%
    09:00 +31°C° 0 mm 2 mps 758 mmHg 76%
    10:00 +33°C° 0 mm 1 mps 758 mmHg 68%
    11:00 +35°C° 0 mm 2 mps 757 mmHg 64%
    12:00 +36°C° 0 mm 2 mps 757 mmHg 61%
    13:00 +36°C° 0 mm 3 mps 756 mmHg 57%
    14:00 +35°C° 0.8 mm 3 mps 756 mmHg 66%
    15:00 +33°C° 0.8 mm 3 mps 755 mmHg 74%
    16:00 +31°C° 0.8 mm 2 mps 755 mmHg 83%
    17:00 +30°C° 0 mm 3 mps 755 mmHg 85%
    18:00 +30°C° 0 mm 3 mps 755 mmHg 87%
    19:00 +29°C° 0 mm 3 mps 755 mmHg 89%
    20:00 +29°C° 0 mm 3 mps 756 mmHg 88%
    21:00 +29°C° 0 mm 3 mps 756 mmHg 88%
    22:00 +29°C° 0 mm 3 mps 757 mmHg 88%
    23:00 +29°C° 0 mm 3 mps 757 mmHg 89%

    Day after tomorrow, 21 April, Sunday

    Time Temperature Precipitation Wind Pressure Humidity
    00:00 +29°C° 0 mm 3 mps 757 mmHg 90%
    01:00 +29°C° 0 mm 3 mps 757 mmHg 91%
    02:00 +28°C° 0.5 mm 2 mps 756 mmHg 91%
    03:00 +28°C° 0.5 mm 2 mps 756 mmHg 92%
    04:00 +28°C° 0.5 mm 2 mps 755 mmHg 92%
    05:00 +28°C° 0.1 mm 2 mps 756 mmHg 93%
    06:00 +28°C° 0.1 mm 2 mps 756 mmHg 93%
    07:00 +28°C° 0.1 mm 2 mps 756 mmHg 93%
    08:00 +30°C° 0 mm 2 mps 757 mmHg 85%
    09:00 +31°C° 0 mm 1 mps 757 mmHg 78%
    10:00 +33°C° 0 mm 1 mps 757 mmHg 70%
    11:00 +35°C° 0 mm 2 mps 757 mmHg 65%
    12:00 +36°C° 0 mm 2 mps 756 mmHg 60%
    13:00 +37°C° 0 mm 3 mps 755 mmHg 55%
    14:00 +36°C° 0 mm 3 mps 755 mmHg 59%
    15:00 +35°C° 0 mm 4 mps 754 mmHg 63%
    16:00 +34°C° 0 mm 4 mps 753 mmHg 67%
    17:00 +33°C° 0.1 mm 4 mps 754 mmHg 73%
    18:00 +32°C° 0.1 mm 4 mps 754 mmHg 78%
    19:00 +30°C° 0.1 mm 3 mps 755 mmHg 83%
    20:00 +30°C° 0.4 mm 4 mps 755 mmHg 84%
    21:00 +30°C° 0.4 mm 4 mps 756 mmHg 84%
    22:00 +30°C° 0.4 mm 4 mps 756 mmHg 85%
    23:00 +29°C° 0.9 mm 4 mps 756 mmHg 87%

    22 April, Monday

    Time Temperature Precipitation Wind Pressure Humidity
    00:00 +29°C° 0.9 mm 3 mps 756 mmHg 90%
    01:00 +29°C° 0.9 mm 3 mps 756 mmHg 92%
    02:00 +28°C° 1.2 mm 2 mps 755 mmHg 93%
    03:00 +28°C° 1.2 mm 2 mps 755 mmHg 93%
    04:00 +28°C° 1.2 mm 1 mps 755 mmHg 93%
    05:00 +28°C° 0.5 mm 1 mps 755 mmHg 93%
    06:00 +28°C° 0.5 mm 1 mps 756 mmHg 93%
    07:00 +28°C° 0.5 mm 1 mps 756 mmHg 92%
    08:00 +29°C° 0.3 mm 2 mps 756 mmHg 88%
    09:00 +30°C° 0.3 mm 2 mps 757 mmHg 84%
    10:00 +31°C° 0.3 mm 2 mps 757 mmHg 80%
    11:00 +33°C° 0.1 mm 3 mps 757 mmHg 75%
    12:00 +34°C° 0.1 mm 3 mps 756 mmHg 70%
    13:00 +34°C° 0.1 mm 3 mps 755 mmHg 65%
    14:00 +34°C° 0 mm 3 mps 755 mmHg 67%
    15:00 +34°C° 0 mm 3 mps 754 mmHg 68%
    16:00 +33°C° 0 mm 4 mps 753 mmHg 70%
    17:00 +31°C° 0 mm 3 mps 754 mmHg 75%
    18:00 +30°C° 0 mm 3 mps 754 mmHg 79%
    19:00 +29°C° 0 mm 3 mps 755 mmHg 84%
    20:00 +29°C° 0 mm 3 mps 755 mmHg 86%
    21:00 +29°C° 0 mm 3 mps 756 mmHg 87%
    22:00 +29°C° 0 mm 3 mps 756 mmHg 88%
    23:00 +29°C° 0.1 mm 3 mps 756 mmHg 89%

    23 April, Tuesday

    Time Temperature Precipitation Wind Pressure Humidity
    00:00 +29°C° 0.1 mm 3 mps 755 mmHg 90%
    01:00 +29°C° 0.1 mm 2 mps 755 mmHg 90%
    02:00 +28°C° 0.6 mm 2 mps 755 mmHg 91%
    03:00 +28°C° 0.6 mm 2 mps 755 mmHg 92%
    04:00 +28°C° 0.6 mm 1 mps 755 mmHg 93%
    05:00 +28°C° 0.3 mm 1 mps 755 mmHg 93%
    06:00 +28°C° 0.3 mm 1 mps 756 mmHg 93%
    07:00 +26°C° 0.3 mm 0 mps 756 mmHg 92%
    08:00 +30°C° 0 mm 1 mps 757 mmHg 86%
    09:00 +31°C° 0 mm 1 mps 757 mmHg 79%
    10:00 +32°C° 0 mm 1 mps 757 mmHg 73%
    11:00 +34°C° 0 mm 2 mps 756 mmHg 70%
    12:00 +34°C° 0 mm 2 mps 756 mmHg 67%
    13:00 +35°C° 0 mm 3 mps 755 mmHg 64%
    14:00 +35°C° 0 mm 3 mps 754 mmHg 65%
    15:00 +34°C° 0 mm 3 mps 754 mmHg 66%
    16:00 +34°C° 0 mm 4 mps 753 mmHg 67%
    17:00 +33°C° 0 mm 3 mps 754 mmHg 72%
    18:00 +31°C° 0 mm 3 mps 754 mmHg 78%
    19:00 +30°C° 0 mm 3 mps 755 mmHg 83%
    20:00 +30°C° 0 mm 3 mps 755 mmHg 84%
    21:00 +29°C° 0 mm 3 mps 756 mmHg 86%
    22:00 +29°C° 0 mm 3 mps 756 mmHg 87%
    23:00 +29°C° 0.1 mm 3 mps 756 mmHg 88%

    24 April, Wednesday

    Time Temperature Precipitation Wind Pressure Humidity
    00:00 +29°C° 0.1 mm 3 mps 756 mmHg 89%
    01:00 +29°C° 0.1 mm 3 mps 755 mmHg 90%
    02:00 +28°C° 0.2 mm 2 mps 755 mmHg 91%
    03:00 +28°C° 0.2 mm 2 mps 755 mmHg 92%
    04:00 +28°C° 0.2 mm 2 mps 754 mmHg 92%
    05:00 +28°C° 0.1 mm 2 mps 755 mmHg 92%
    06:00 +28°C° 0.1 mm 2 mps 755 mmHg 92%
    07:00 +28°C° 0.1 mm 2 mps 756 mmHg 92%
    08:00 +30°C° 0 mm 2 mps 756 mmHg 82%
    09:00 +32°C° 0 mm 2 mps 756 mmHg 72%
    10:00 +35°C° 0 mm 2 mps 757 mmHg 63%
    11:00 +35°C° 0 mm 2 mps 756 mmHg 62%
    12:00 +35°C° 0 mm 3 mps 755 mmHg 62%
    13:00 +36°C° 0 mm 4 mps 754 mmHg 62%
    14:00 +35°C° 0.1 mm 4 mps 754 mmHg 65%
    15:00 +34°C° 0.1 mm 4 mps 754 mmHg 68%
    16:00 +33°C° 0.1 mm 4 mps 753 mmHg 72%
    17:00 +32°C° 0.6 mm 4 mps 754 mmHg 77%
    18:00 +30°C° 0.6 mm 4 mps 755 mmHg 82%
    19:00 +29°C° 0.6 mm 4 mps 755 mmHg 87%
    20:00 +29°C° 0 mm 4 mps 756 mmHg 87%
    21:00 +29°C° 0 mm 4 mps 756 mmHg 87%
    22:00 +29°C° 0 mm 4 mps 757 mmHg 88%
    23:00 +29°C° 0.7 mm 4 mps 756 mmHg 89%
    Show more